User: anonymous   Login
Location: Byszew
(52.1813°N, 19.2693°E)
Time: 23:04:15
(UTC+00:00)
Language:

Meteor 2-20 - Orbit

View from above orbital plane
View from above orbital plane
View from above satellite
View from above satellite

Ground track
Ground track

The orbit data is extracted from the following two-line orbital elements,

1 20826U 90086A   21129.54860570  .00000044  00000-0  26570-4 0  9993
2 20826  82.5261 243.4823 0012804 212.7832 147.2535 13.84256142546334
Epoch (UTC): 09 May 2021 13:09:59
Eccentricity: 0.0012804
inclination: 82.5261°
perigee height: 939 km
apogee height: 958 km
right ascension of ascending node: 243.4823°
argument of perigee: 212.7832°
revolutions per day: 13.84256142
mean anomaly at epoch: 147.2535°
orbit number at epoch: 54633

The dashed part of the orbit path shows where the satellite is in the earth's shadow,  

DLR